Location: Coopersdale
(40.3556°N, 78.9372°W)
Time: 22:47:31
(UTC+00:00)

Explorer 11/Cluster Stage 4 - Pass Details

Date: 26 January 2021
Orbit: 467 x 1257 km, 28.8° (Epoch: 25 February)

Event Time Altitude Azimuth Distance (km) Brightness Sun altitude
Rises 01:10:34 0° 224° (SW) 3,081 10.2 -31.3°
Reaches altitude 10° 01:13:22 10° 207° (SSW) 2,303 9.2 -31.8°
Enters shadow 01:14:41 15° 195° (SSW) 2,041 8.8 -32.1°
